Showing default

COSMOS 2615, 68826

Orbit data source: Space-Track

COSMOS 2615, 68826 is a payload satellite owned by MO RF (CIS) in SSO that was launched on Thu, 23 Apr 2026 UTC via an ANGARA-1.2 launch vehicle from the Plesetsk Missile And Space Complex (PKMTR). Payload-class satellites include a variety of spacecraft equipped with specific instruments for various scientific and technological missions. These include communications satellites like Starlink; space stations such as the ISS; scientific satellites like the Hubble; Earth observation satellites from companies like Planet Labs, Umbra, and HawkEye 360; GPS; miniature CubeSats for education and research; and military/defense satellites.

Not visible in the next 10 days
Identifier
68826, 2026-090A
Orbit
SSO
Country
Flag of CISCIS
Related business
Manufacturer
VNIIEMI?
Mission
Operational Defense Imaging
Bus & Motor
OO-MKA, Unknown motor
Mass
520 kg wet, ~500 kg dry
Launch date (UTC)
2026-04-23 (3 months ago)
Launch vehicle
ANGARA-1.2
Launch site
Plesetsk Missile And Space Complex (PKMTR)
Object type
Payload
Rocket body
Debris
Shape & HBR
Cyl + 2 Pan, 14.5 m
Radar Cross Section
3.727 m², Large (>1 m²)

Expand to show TLE details & history
Last TLE update: 16 hours ago

TLE from 16 hours ago
0 COSMOS 2615
1 68826U 26090A   26202.03830963  .00031006  00000-0  13154-3 0  9998
2 68826  96.6381 118.9675 0005802 274.9230  85.1380 15.85253497 14047
Epoch: 2026-07-21T00:55Z
TLE epoch observation values (Epoch: 2026-07-21T00:55:09.952Z)
Latitude
0.00002°
Longitude
166.36229°
Altitude
318.484 km
Speed
7.717 km/s
True Right ascension
07h 55m 52s
True Declination
0° 00' 00"
Sunlit
Object was in daylight at epoch
Visualization orbit readout
Latitude
Unknown
Longitude
Unknown
Altitude
Unknown
Speed
Unknown
Apparent Right ascension
Unknown
Apparent Declination
Unknown
Sunlit
N/A
Visualization observer readout
Local Sidereal Time
06:11:38
Azimuth
Unknown
Elevation
Unknown
Doppler factor
Unknown
Orbital elements
Apogee altitude
316.34 km
Perigee altitude
308.577 km
Semi-major axis
6,690.595 km
Eccentricity
0.00058
Inclination
96.6381°
RAAN
118.9675°
Arg. of periapsis
274.923°
True anomaly
85.20425°
Mean anomaly
85.138°
Eccentric anomaly
85.17113°
Mean motion
3.96594 °/min
Orbital period
90.77 mins
BSTAR
0.00013154
Loading maneuver chart data...
Computing Atmospheric mass density...
Loading historical data...
Loading historical data...
Loading historical data...
Loading historical data...
Loading historical data...
Loading historical data...
Loading historical data...
Other satellites on launch #90 in the year 2026 (2026-04-23 UTC)

Documentation

Showing up to 5 results
|